Weather History for Hailey, ID

Change the Weather History Date:

Monday, January 20, 2014

  Actual Average Record
Temperature  
Mean Temperature 28 °F -  
Max Temperature 41 °F 34 °F 69 °F (2012)
Min Temperature 15 °F 14 °F 3 °F (2002)
Degree Days  
Heating Degree Days 37    
Moisture  
Dew Point 19 °F    
Average Humidity 73    
Maximum Humidity 86    
Minimum Humidity 49    
Precipitation  
Precipitation 0.00 in - - ()
Sea Level Pressure  
Sea Level Pressure 30.37 in    
Wind  
Wind Speed 8 mph (NW)    
Max Wind Speed 17 mph    
Max Gust Speed -    
Visibility 10 miles    
Events      
Averages and records for this station are not official NWS values.
T = Trace of Precipitation, MM = Missing Value Source: NWS Daily Summary

Daily Weather History Graph

Daily Weather History Graph

Search for Another Location

Airport:

Trip Planner

Search our weather history database for the weather conditions in past years. The results will help you decide how hot, cold, wet, or windy it might be!

Date:

Astronomy

Jan. 20, 2014 Rise Set
Actual Time 8:04 AM MST 5:32 PM MST
Civil Twilight 7:32 AM MST 6:04 PM MST
Nautical Twilight 6:57 AM MST 6:39 PM MST
Astronomical Twilight 6:23 AM MST 7:13 PM MST
Moon 10:21 PM MST (1/20) 9:56 AM MST (1/20)
Length of Visible Light 10h 31m
Length of Day
9h 28m
Waning Gibbous, 82% of the Moon is Illuminated
Jan 20
Waning Gibbous
Jan 23
Last Quarter
Jan 30
New
Feb 6
First Quarter
Feb 14
Full

Hourly Weather History & Observations

Time (MST) Temp. Windchill Dew Point Humidity Pressure Visibility Wind Dir Wind Speed Gust Speed Precip Events Conditions
12:15 AM 26.6 °F 17.5 °F 19.4 °F 74% 30.24 in 10.0 mi NW 9.2 mph - N/A   Clear
12:35 AM 26.6 °F 17.5 °F 19.4 °F 74% 30.24 in 10.0 mi NW 9.2 mph - N/A   Scattered Clouds
12:55 AM 26.6 °F 16.8 °F 19.4 °F 74% 30.23 in 10.0 mi WNW 10.4 mph - N/A   Mostly Cloudy
1:15 AM 24.8 °F 15.3 °F 19.4 °F 80% 30.24 in 10.0 mi NNW 9.2 mph - N/A   Scattered Clouds
1:35 AM 23.0 °F 13.9 °F 19.4 °F 86% 30.24 in 10.0 mi NW 8.1 mph - N/A   Clear
1:55 AM 24.8 °F 16.1 °F 19.4 °F 80% 30.25 in 10.0 mi NW 8.1 mph - N/A   Clear
2:15 AM 24.8 °F 16.9 °F 19.4 °F 80% 30.25 in 10.0 mi NW 6.9 mph - N/A   Clear
2:35 AM 23.0 °F 13.9 °F 17.6 °F 80% 30.27 in 10.0 mi NNW 8.1 mph - N/A   Clear
2:55 AM 23.0 °F 18.4 °F 17.6 °F 80% 30.27 in 10.0 mi NNE 3.5 mph - N/A   Clear
3:15 AM 23.0 °F 15.8 °F 17.6 °F 80% 30.28 in 10.0 mi NW 5.8 mph - N/A   Clear
3:35 AM 24.8 °F 15.3 °F 17.6 °F 74% 30.29 in 10.0 mi NNW 9.2 mph - N/A   Clear
3:55 AM 24.8 °F 16.9 °F 17.6 °F 74% 30.29 in 10.0 mi NW 6.9 mph - N/A   Clear
4:15 AM 23.0 °F 14.7 °F 17.6 °F 80% 30.31 in 10.0 mi NW 6.9 mph - N/A   Clear
4:35 AM 21.2 °F 13.6 °F 15.8 °F 80% 30.31 in 10.0 mi NW 5.8 mph - N/A   Clear
4:55 AM 21.2 °F 13.6 °F 15.8 °F 80% 30.31 in 10.0 mi NW 5.8 mph - N/A   Clear
5:15 AM 21.2 °F 12.6 °F 15.8 °F 80% 30.32 in 10.0 mi North 6.9 mph - N/A   Clear
5:35 AM 21.2 °F 13.6 °F 15.8 °F 80% 30.32 in 10.0 mi NNW 5.8 mph - N/A   Clear
5:55 AM 19.4 °F 12.8 °F 14.0 °F 80% 30.33 in 10.0 mi North 4.6 mph - N/A   Clear
6:47 AM 15.8 °F 6.1 °F 12.2 °F 86% 30.36 in 10.0 mi NW 6.9 mph - N/A   Partly Cloudy
7:47 AM 15.8 °F 5.1 °F 12.2 °F 86% 30.39 in 10.0 mi WNW 8.1 mph - N/A   Clear
8:48 AM 17.6 °F 7.3 °F 12.2 °F 79% 30.40 in 10.0 mi WNW 8.1 mph - N/A   Clear
9:47 AM 21.2 °F 12.6 °F 15.8 °F 80% 30.43 in 10.0 mi WNW 6.9 mph - N/A   Clear
10:47 AM 28.4 °F 20.4 °F 17.6 °F 64% 30.45 in 10.0 mi NNW 8.1 mph - N/A   Clear
11:47 AM 33.8 °F 28.6 °F 19.4 °F 56% 30.45 in 10.0 mi NNW 5.8 mph - N/A   Partly Cloudy
12:50 PM 39.2 °F - 21.2 °F 49% 30.44 in 10.0 mi Calm Calm - N/A   Clear
1:50 PM 39.2 °F 33.0 °F 24.8 °F 56% 30.44 in 10.0 mi SE 9.2 mph - N/A   Clear
2:47 PM 39.2 °F 32.5 °F 24.8 °F 56% 30.44 in 10.0 mi ESE 10.4 mph - N/A   Clear
3:54 PM 41.0 °F 35.2 °F 24.8 °F 53% 30.45 in 10.0 mi SE 9.2 mph - N/A   Clear
4:47 PM 39.2 °F 35.0 °F 24.8 °F 56% 30.45 in 10.0 mi SE 5.8 mph - N/A   Clear
5:47 PM 33.8 °F 30.8 °F 23.0 °F 65% 30.45 in 10.0 mi WNW 3.5 mph - N/A   Clear
6:47 PM 30.2 °F 24.3 °F 23.0 °F 75% 30.46 in 10.0 mi NW 5.8 mph - N/A   Clear
8:47 PM 28.4 °F 21.2 °F 21.2 °F 74% 30.48 in 10.0 mi NW 6.9 mph - N/A   Clear
9:47 PM 28.4 °F 16.2 °F 21.2 °F 74% 30.48 in 10.0 mi NW 17.3 mph - N/A   Clear
10:15 PM 30.2 °F 20.8 °F 21.2 °F 69% 30.48 in 10.0 mi NW 11.5 mph - N/A   Clear
10:35 PM 30.2 °F 20.2 °F 21.2 °F 69% 30.48 in 10.0 mi NW 12.7 mph - N/A   Clear
10:47 PM 28.4 °F 18.0 °F 21.2 °F 74% 30.48 in 10.0 mi NW 12.7 mph - N/A   Clear
10:55 PM 30.2 °F 20.8 °F 21.2 °F 69% 30.48 in 10.0 mi NW 11.5 mph - N/A   Clear
11:15 PM 30.2 °F 19.8 °F 21.2 °F 69% 30.49 in 10.0 mi NW 13.8 mph - N/A   Clear
11:35 PM 28.4 °F 18.5 °F 21.2 °F 74% 30.48 in 10.0 mi NW 11.5 mph - N/A   Clear
11:55 PM 30.2 °F 20.8 °F 19.4 °F 64% 30.48 in 10.0 mi NW 11.5 mph - N/A   Clear